Location: Castelbiague
(43.0361°N, 0.9246°E)
Time: 00:58:51
(UTC+00:00)

Lacrosse 5 rocket - Visible Passes

Search period start: 24 October 2021 00:00
Search period end: 03 November 2021 00:00
Orbit: 463 x 629 km, 57.0° (Epoch: 23 October)

Date Brightness Start Highest point End Pass type
(mag) Time Alt. Az. Time Alt. Az. Time Alt. Az.
24 Oct 4.3 03:15:52 14° NNE 03:15:52 14° NNE 03:16:30 10° NE visible
24 Oct 3.5 04:51:28 14° NNW 04:52:39 15° NNW 04:55:17 10° NNE visible
25 Oct 4.5 03:09:53 11° NNE 03:09:53 11° NNE 03:10:06 10° NNE visible
25 Oct 3.6 04:45:29 13° NNW 04:46:32 14° N 04:48:57 10° NNE visible
26 Oct 3.7 04:39:28 13° NNW 04:40:26 14° N 04:42:41 10° NNE visible
27 Oct 3.7 04:33:27 13° NNW 04:34:20 13° N 04:36:28 10° NNE visible
28 Oct 3.8 04:27:25 12° N 04:28:13 13° N 04:30:20 10° NNE visible
29 Oct 3.8 04:21:23 13° N 04:22:07 13° N 04:24:15 10° NNE visible
30 Oct 3.8 04:15:22 13° N 04:16:01 13° N 04:18:14 10° NE visible
30 Oct 3.2 05:52:38 10° NNW 05:56:27 27° NNE 06:00:21 10° E visible
31 Oct 3.8 04:09:22 14° N 04:09:54 14° N 04:12:17 10° NE visible
31 Oct 3.0 05:46:13 10° NNW 05:50:13 31° NNE 05:54:20 10° E visible
01 Nov 3.8 04:03:24 15° N 04:03:46 15° NNE 04:06:22 10° NE visible
01 Nov 2.8 05:39:49 10° NW 05:43:58 37° NNE 05:48:15 10° ESE visible
02 Nov 3.8 03:57:28 16° NNE 03:57:37 16° NNE 04:00:27 10° NE visible
02 Nov 2.5 05:33:24 10° NW 05:37:43 45° NE 05:42:07 10° ESE visible
